Regional Weather Roundup
Issued by NWS Little Rock, AR

Home | Current Version | Previous Version | Graphics & Text | Print | Product List | Glossary On
Versions: 1 2 3 4 5 6 7 8 9 10 11 12 13 14 15 16 17 18 19 20 21 22 23 24 25 26 27 28 29 30 31
000
ASUS44 KLZK 220305
RWRLZK

WEATHER ROUNDUP FOR ARKANSAS
NATIONAL WEATHER SERVICE LITTLE ROCK AR
900 PM CST TUE FEB 21 2017

NOTE: "FAIR" INDICATES FEW OR NO CLOUDS BELOW 12,000 FEET WITH NO
SIGNIFICANT WEATHER AND/OR OBSTRUCTIONS TO VISIBILITY.

ARZ001-003-010-029-220400-
NORTHWEST ARKANSAS

CITY           SKY/WX    TMP DP  RH WIND       PRES   REMARKS
FAYETTEVILLE   CLOUDY    60  56  86 NE5       29.92S
FORT SMITH     CLOUDY    63  55  75 CALM      29.90S
HARRISON       CLOUDY    57  57 100 N5        29.92S
BENTONVILLE    CLEAR     57  54  88 CALM      29.94R
ROGERS         PTCLDY    57  55  93 CALM      29.93S
SILOAM SPGS    CLEAR     59  52  77 E3        29.93R
HIGHFILL       CLEAR     59  55  87 CALM      29.92S
SPRINGDALE     MOCLDY    59  57  94 NE3       29.94S
$$

ARZ004-005-016-220400-
NORTH CENTRAL ARKANSAS

CITY           SKY/WX    TMP DP  RH WIND       PRES   REMARKS
BATESVILLE     CLOUDY    57  55  94 CALM      29.90S
FLIPPIN        CLOUDY    57  52  82 N3        29.90R
MTN HOME       MOCLDY    55  54  96 CALM      29.91R FOG
$$

ARZ040-041-220400-
WEST CENTRAL ARKANSAS

CITY           SKY/WX    TMP DP  RH WIND       PRES   REMARKS
MENA           CLOUDY    61  61 100 CALM      29.91S
MOUNT IDA      CLOUDY    59  57  93 CALM      29.88R
$$

ARZ009-017-025-026-028-220400-
NORTHEAST ARKANSAS

CITY           SKY/WX    TMP DP  RH WIND       PRES   REMARKS
CORNING        CLOUDY    59  59 100 N6        29.92S
JONESBORO      CLOUDY    60  58  92 N5        29.89F
NEWPORT        CLOUDY    59  58  96 N7          N/A
WALNUT RIDGE   MOCLDY    61  55  82 N7        29.90F
BLYTHEVILLE    CLOUDY    60  59  96 E8        29.90S
$$

ARZ022-023-033-042-044-220400-
CENTRAL ARKANSAS

CITY           SKY/WX    TMP DP  RH WIND       PRES   REMARKS
LITTLE ROCK    CLOUDY    59  59 100 N6        29.88R
N LITTLE ROCK    N/A     58  57  97 N3        29.89R
JACKSONVILLE   CLOUDY    59  59 100 N5        29.87S
SEARCY         CLEAR     58  58 100 E8        29.89F
HOT SPRINGS    CLOUDY    60  59  96 CALM      29.88S
RUSSELLVILLE   CLOUDY    59  58  96 N3        29.89R
CLINTON        CLOUDY    59  57  94 CALM      29.90S
$$

ARZ036-220400-
EAST ARKANSAS

CITY           SKY/WX    TMP DP  RH WIND       PRES   REMARKS
WEST MEMPHIS   CLOUDY    62  59  90 E5        29.88R
$$

ARZ050-053-066-070-073-220400-
SOUTHWEST ARKANSAS

CITY           SKY/WX    TMP DP  RH WIND       PRES   REMARKS
ARKADELPHIA    CLOUDY    60  58  92 NW3       29.88S
CAMDEN         CLOUDY    59  57  94 NW3       29.88R
EL DORADO      CLOUDY    60  59  96 NW6       29.87S
DE QUEEN       CLOUDY    61  58  90 CALM      29.88S
$$

ARZ056-057-069-220400-
SOUTHEAST ARKANSAS

CITY           SKY/WX    TMP DP  RH WIND       PRES   REMARKS
PINE BLUFF     CLOUDY    59  58  96 SE6       29.86S
STUTTGART      CLEAR     55  48  76 N3        29.88R
MONTICELLO     CLOUDY    59  56  89 W3        29.86S

$$






USA.gov is the U.S. government's official web portal to all federal, state and local government web resources and services.